Location: Unspecified
(0.0000°N, 0.0000°E)
Time: 07:44:22
(UTC+02:00)

Ariane H10 - Visible Passes

Search period start: 05 September 2015 00:00
Search period end: 15 September 2015 00:00
Orbit: 497 x 34802 km, 7.4° (Epoch: 03 September)

Date Brightness Start Highest point End Pass type
(mag) Time Alt. Az. Time Alt. Az. Time Alt. Az.
05 Sep 7.9 13:56:42 10° W 23:08:36 81° S 23:22:57 67° ESE visible
07 Sep 2.7 06:49:39 37° WSW 06:50:42 67° S 06:54:19 10° E visible
07 Sep 8.8 17:51:58 10° W 02:52:24 20° W 02:52:24 20° W visible
08 Sep 7.8 14:02:01 10° W 23:17:38 80° S 23:28:17 70° SE visible
10 Sep 2.6 06:54:29 30° WSW 06:55:49 75° S 06:59:49 10° E visible
10 Sep 8.8 17:59:23 10° W 02:57:45 17° W 02:57:45 17° W visible
11 Sep 7.8 14:07:25 10° W 23:26:00 79° S 23:33:38 72° SE visible
13 Sep 2.6 06:59:21 25° W 07:00:59 85° S 07:05:27 10° E visible
13 Sep 8.8 18:07:10 10° W 03:03:08 15° W 03:03:08 15° W visible
14 Sep 7.7 14:12:52 10° W 23:33:55 78° S 23:39:01 74° SSE visible
